Covington, KY

3:34 PM EDT on June 26, 2017 (GMT -0400)
Cincinnati-Northern KY International

Weather History for KCVG - March, 2014

Change the Weather History Date:

Monday, March 17, 2014

  Actual Average Record
Temperature  
Mean Temperature 32 °F 44 °F  
Max Temperature 39 °F 54 °F 76 °F (1889)
Min Temperature 24 °F 34 °F 5 °F (1900)
Degree Days  
Heating Degree Days 33 21  
Month to date heating degree days 461 407  
Since 1 July heating degree days 4705 4234  
Cooling Degree Days 0 0  
Month to date cooling degree days 0 0  
Year to date cooling degree days 0 0  
Moisture  
Dew Point 16 °F    
Average Humidity 60    
Maximum Humidity 72    
Minimum Humidity 47    
Precipitation  
Precipitation 0.00 in 0.13 in 1.07 in (1897)
Month to date precipitation 0.94 2.00  
Year to date precipitation 6.48 7.81  
Snow  
Snow 0.00 in 0.10 in 4.10 in (1970)
Month to date snowfall 2.5 2.0  
Since 1 July snowfall 46.1 20.6  
Snow Depth 0.00 in    
Sea Level Pressure  
Sea Level Pressure 29.91 in    
Wind  
Wind Speed 8 mph (NE)    
Max Wind Speed 22 mph    
Max Gust Speed 26 mph    
Visibility 10 miles    
Events      
T = Trace of Precipitation, MM = Missing Value Source: NWS Daily Summary

Daily Weather History Graph

Daily Weather History Graph

Search for Another Location

Airport or City:

Trip Planner

Search our weather history database for the weather conditions in past years. The results will help you decide how hot, cold, wet, or windy it might be!

Date:

Astronomy

Mar. 17, 2014 Rise Set
Actual Time 7:46 AM EDT 7:47 PM EDT
Civil Twilight 7:20 AM EDT 8:14 PM EDT
Nautical Twilight 6:49 AM EDT 8:45 PM EDT
Astronomical Twilight 6:17 AM EDT 9:16 PM EDT
Moon 9:02 PM EDT (3/17) 8:02 AM EDT (3/17)
Length of Visible Light 12h 54m
Length of Day
12h 00m
Full, 99% of the Moon is Illuminated
Mar 17
Full
Mar 23
Last Quarter
Mar 30
New
Apr 7
First Quarter
Apr 15
Full

Hourly Weather History & Observations

Time (EDT) Temp. Windchill Dew Point Humidity Pressure Visibility Wind Dir Wind Speed Gust Speed Precip Events Conditions
12:52 AM 27.0 °F 13.9 °F 12.0 °F 53% 29.98 in 10.0 mi NNE 18.4 mph 24.2 mph N/A   Overcast
1:52 AM 26.1 °F 12.7 °F 12.0 °F 55% 29.96 in 10.0 mi NE 18.4 mph - N/A   Overcast
2:52 AM 26.1 °F 15.0 °F 12.0 °F 55% 29.96 in 10.0 mi NE 12.7 mph - N/A   Overcast
3:52 AM 25.0 °F 12.2 °F 12.0 °F 58% 29.95 in 10.0 mi NNE 16.1 mph - N/A   Overcast
4:52 AM 24.1 °F 12.5 °F 12.0 °F 60% 29.93 in 10.0 mi NNE 12.7 mph - N/A   Overcast
5:32 AM 24.8 °F 12.4 °F 12.2 °F 59% 29.89 in 10.0 mi NNE 15.0 mph - N/A   Overcast
5:52 AM 24.1 °F 12.0 °F 12.9 °F 62% 29.93 in 10.0 mi NE 13.8 mph - N/A   Overcast
6:17 AM 24.8 °F 12.4 °F 12.2 °F 59% 29.90 in 10.0 mi NNE 15.0 mph - N/A   Overcast
6:52 AM 24.1 °F 12.5 °F 12.0 °F 60% 29.92 in 10.0 mi NE 12.7 mph - N/A   Overcast
7:20 AM 24.8 °F 14.0 °F 12.2 °F 59% 29.89 in 10.0 mi NNE 11.5 mph - N/A   Overcast
7:52 AM 24.1 °F 14.4 °F 12.9 °F 62% 29.91 in 10.0 mi NNE 9.2 mph - N/A   Overcast
8:52 AM 25.0 °F 13.6 °F 12.9 °F 60% 29.94 in 10.0 mi NNE 12.7 mph - N/A   Overcast
9:52 AM 26.1 °F 15.6 °F 12.9 °F 58% 29.94 in 10.0 mi NNE 11.5 mph - N/A   Overcast
10:52 AM 27.0 °F 20.5 °F 14.0 °F 58% 29.96 in 10.0 mi ENE 5.8 mph - N/A   Overcast
11:08 AM 28.4 °F 21.2 °F 14.0 °F 55% 29.93 in 10.0 mi NE 6.9 mph - N/A   Overcast
11:37 AM 28.4 °F 20.4 °F 14.0 °F 55% 29.91 in 10.0 mi NE 8.1 mph - N/A   Overcast
11:52 AM 28.9 °F 21.1 °F 14.0 °F 54% 29.92 in 10.0 mi NE 8.1 mph - N/A   Overcast
12:52 PM 30.9 °F 23.5 °F 15.1 °F 52% 29.91 in 10.0 mi NNE 8.1 mph - N/A   Overcast
1:52 PM 33.1 °F 27.7 °F 17.1 °F 52% 29.90 in 10.0 mi ENE 5.8 mph - N/A   Overcast
2:52 PM 35.1 °F 31.0 °F 18.0 °F 50% 29.88 in 10.0 mi East 4.6 mph - N/A   Overcast
3:52 PM 37.0 °F 34.5 °F 19.9 °F 50% 29.87 in 10.0 mi Variable 3.5 mph - N/A   Overcast
4:52 PM 37.0 °F - 21.0 °F 52% 29.86 in 10.0 mi Calm Calm - N/A   Overcast
5:52 PM 37.9 °F 33.5 °F 21.0 °F 51% 29.85 in 10.0 mi NE 5.8 mph - N/A   Overcast
6:52 PM 37.9 °F 34.4 °F 21.9 °F 53% 29.87 in 10.0 mi East 4.6 mph - N/A   Overcast
7:52 PM 37.9 °F 35.5 °F 21.9 °F 53% 29.88 in 10.0 mi East 3.5 mph - N/A   Overcast
8:52 PM 37.0 °F 31.6 °F 24.1 °F 59% 29.87 in 10.0 mi East 6.9 mph - N/A   Overcast
9:52 PM 36.0 °F 32.1 °F 24.1 °F 62% 29.89 in 10.0 mi East 4.6 mph - N/A   Scattered Clouds
10:52 PM 33.1 °F 27.7 °F 23.0 °F 66% 29.91 in 10.0 mi East 5.8 mph - N/A   Clear
11:52 PM 30.9 °F 26.2 °F 23.0 °F 72% 29.92 in 10.0 mi East 4.6 mph - N/A   Partly Cloudy